[Iaude] MPEC G88: 2017 FU158 [a=3.60,e=0.67,i=23.8,H=18.8]

mpec at si.edu mpec at si.edu
Fri Apr 14 07:23:44 EDT 2017


M.P.E.C. 2017-G88                                Issued 2017 Apr. 14, 11:20 UT
 
     The Minor Planet Electronic Circulars contain information on unusual
         minor planets and routine data on comets.  They are published
    on behalf of Division F of the International Astronomical Union by the
          Minor Planet Center, Smithsonian Astrophysical Observatory,
                          Cambridge, MA 02138, U.S.A.

             Prepared using the Tamkin Foundation Computer Network

                              MPC at CFA.HARVARD.EDU
            URL http://www.minorplanetcenter.net/    ISSN 1523-6714


                                  2017 FU158
 
Observations:
     K17FF8U* S2017 03 26.95715 18 20 18.29 +08 42 31.0          19   RLEG088C51
     K17FF8U  s2017 03 26.95715 1 + 2835.3351 - 6139.0133 + 1161.3780   EG088C51
     K17FF8U  S2017 03 27.21909 18 20 38.14 +08 43 52.1                LEG088C51
     K17FF8U  s2017 03 27.21909 1 + 2863.4696 - 6125.6465 + 1162.8418   EG088C51
     K17FF8U  S2017 03 27.34999 18 20 48.02 +08 44 33.3                LEG088C51
     K17FF8U  s2017 03 27.34999 1 + 2879.4940 - 6110.0000 + 1204.5134   EG088C51
     K17FF8U  S2017 03 27.67738 18 21 12.53 +08 46 12.9                LEG088C51
     K17FF8U  s2017 03 27.67738 1 + 2914.9935 - 6089.3684 + 1221.5953   EG088C51
     K17FF8U  S2017 03 27.80841 18 21 22.23 +08 46 53.8                LEG088C51
     K17FF8U  s2017 03 27.80841 1 + 2927.0716 - 6091.6179 + 1181.0576   EG088C51
     K17FF8U  S2017 03 27.87386 18 21 27.08 +08 47 13.4                LEG088C51
     K17FF8U  s2017 03 27.87386 1 + 2934.9893 - 6083.7273 + 1201.7612   EG088C51
     K17FF8U  S2017 03 27.93932 18 21 31.82 +08 47 33.7                LEG088C51
     K17FF8U  s2017 03 27.93932 1 + 2942.8598 - 6075.7778 + 1222.3854   EG088C51
     K17FF8U  S2017 03 28.00477 18 21 36.71 +08 47 54.4                LEG088C51
     K17FF8U  s2017 03 28.00477 1 + 2950.6056 - 6068.2083 + 1241.0348   EG088C51
     K17FF8U  S2017 03 28.07035 18 21 41.53 +08 48 13.3                LEG088C51
     K17FF8U  s2017 03 28.07035 1 + 2954.8575 - 6078.4208 + 1179.8167   EG088C51
     K17FF8U  S2017 03 28.59410 18 22 19.67 +08 50 54.1                LEG088C51
     K17FF8U  s2017 03 28.59410 1 + 3013.7646 - 6032.5425 + 1262.6625   EG088C51
     K17FF8U  S2017 03 28.59422 18 22 19.64 +08 50 54.1                LEG088C51
     K17FF8U  s2017 03 28.59422 1 + 3010.4005 - 6050.8723 + 1180.8519   EG088C51
     K17FF8U KC2017 03 30.49381 18 24 32.01 +09 00 24.1                oEG088291
     K17FF8U KC2017 03 30.49904 18 24 32.36 +09 00 24.8                oEG088291
     K17FF8U KC2017 03 30.62705918 24 40.893+09 01 04.58         21.9 GUEG088T12
     K17FF8U  C2017 04 01.62317218 26 48.656+09 10 50.31         21.9 GUEG088T12
     K17FF8U  C2017 04 01.62547518 26 48.789+09 10 50.98         21.6 GUEG088T12
     K17FF8U  C2017 04 01.62744118 26 48.904+09 10 51.53         21.6 GUEG088T12
     K17FF8U ^C2017 04 13.44650 18 35 49.18 +10 01 21.5          20.5 RoEG088695
     K17FF8U ^C2017 04 13.46054 18 35 49.56 +10 01 24.5          20.6 RoEG088695
     K17FF8U ^C2017 04 14.38369 18 36 16.24 +10 04 40.7          20.8 RoEG088695
     K17FF8U ^C2017 04 14.39422 18 36 16.50 +10 04 42.8          20.6 RoEG088695
     K17FF8U ^C2017 04 14.40475 18 36 16.79 +10 04 45.8                oEG088695
 
Observer details:
291 LPL/Spacewatch II.  Observer T. H. Bressi.  1.8-m f/2.7 reflector + CCD.
695 Kitt Peak.  Observer R. S. McMillan.  2.3-m f/9 reflector + CCD.
C51 WISE.  Measurers A. K. Mainzer, J. M. Bauer, T. Grav, J. R. Masiero,
    J. W. Dailey, R. M. Cutri, E. L. Wright, C. Nugent, S. Sonnett, E. Kramer.
T12 Mauna Kea-UH/Tholen NEO Follow-Up (2.24-m).  Observer Y. Ramanjooloo.
    Measurer D. J. Tholen.  2.24-m University of Hawaii reflector.
 
Orbital elements:
2017 FU158                                               Earth MOID = 0.2911 AU
Epoch 2017 Feb. 16.0 TT = JDT 2457800.5                 MPC
M   4.79324              (2000.0)            P               Q
n   0.14450994     Peri.   43.15025     -0.93106811     -0.15379180
a   3.5964241      Node   125.03608     +0.10862795     -0.98254299
e   0.6675394      Incl.   23.83279     +0.34829894     -0.10467735
P   6.82           H   18.8           G   0.15           U   6
Residuals in seconds of arc
170326 C51  0.8+  0.4-    170328 C51  0.2-  0.7-    170401 T12  0.0   0.0
170327 C51  0.1+  0.2-    170328 C51  0.8+  0.3+    170413 695  0.1-  0.0
170327 C51  0.2+  0.6+    170328 C51  0.3+  0.2+    170413 695  0.1-  0.1-
170327 C51  0.3+  0.5-    170330 291  0.0   0.8+    170414 695  0.0   0.1-
170327 C51  0.1-  0.1+    170330 291  0.2+  0.1-    170414 695  0.1-  0.3-
170327 C51  0.0   0.3-    170330 T12  0.1-  0.0     170414 695  0.2+  0.4+
170327 C51  1.3-  0.1-    170401 T12  0.0   0.0
170328 C51  0.3-  0.6+    170401 T12  0.0   0.0

Ephemeris:
2017 FU158               a,e,i = 3.60, 0.67, 24                  q = 1.1957
Date    TT    R. A. (2000) Decl.     Delta      r     Elong.  Phase     V
2017 03 15    18 02 00.1 +07 38 46   1.1021  1.4143    84.7    44.4    21.5
...
2017 03 30    18 23 58.4 +08 57 59   1.1088  1.5166    91.9    41.2    21.5
...
2017 04 07    18 31 40.2 +09 35 36   1.1069  1.5752    96.6    39.1    21.6
...
2017 04 13    18 35 35.3 +09 59 47   1.1036  1.6205   100.5    37.5    21.6
2017 04 14    18 36 05.1 +10 03 23   1.1029  1.6281   101.2    37.2    21.6
2017 04 15    18 36 32.3 +10 06 51   1.1023  1.6358   101.9    36.9    21.6
...
2017 04 21    18 38 18.6 +10 24 28   1.0977  1.6823   106.2    35.0    21.6
...
2017 04 29    18 38 08.8 +10 37 28   1.0916  1.7453   112.5    32.2    21.6
...
2017 05 14    18 30 28.3 +10 17 23   1.0875  1.8657   125.5    26.2    21.5

A. U. Tomatic                (C) Copyright 2017 MPC           M.P.E.C. 2017-G88




More information about the Iaude mailing list